OPS 4682 DEB, 51499

Orbit data source: Space-Track

OPS 4682 DEB, 51499 is space debris in LEO originally from a launch on Sat, 03 Apr 1965 UTC launched from the Air Force Western Test Range (AFWTR). Debris objects in space refer to the collection of defunct objects orbiting the Earth. Examples of debris include non-operational satellites, rocket bodies, and fragments generated from explosions, collisions, or faulty payload assembly.

Loading next visibility...
Identifier
51499, 1965-027GK
Orbit
LEO
Country
Flag of USUS
Related business
Manufacturer
Unknown
Mission
Spacecraft
Bus & Motor
Unknown
Mass
Unknown
Launch date (UTC)
1965-04-03 (61 years ago)
Launch vehicle
Unknown
Launch site
Air Force Western Test Range (AFWTR)
Object type
Payload
Rocket body
Debris
Shape & HBR
Unknown
Radar Cross Section
Medium (>0.1 m² and <1 m²)

Expand to show TLE details & history
Last TLE update: 1 day ago

TLE from 1 day ago
0 OPS 4682 DEB
1 51499U 65027GK  26207.19581644  .00000231  00000-0  81582-3 0  9996
2 51499  90.2524   8.9530 0027970 162.0344 198.1769 12.93322993529035
Epoch: 2026-07-26T04:41Z
TLE epoch observation values (Epoch: 2026-07-26T04:41:58.540Z)
Latitude
-0.00005°
Longitude
-5.43814°
Altitude
1,311.617 km
Speed
7.191 km/s
True Right ascension
00h 35m 48s
True Declination
0° 00' 00"
Sunlit
Object was in daylight at epoch
Visualization orbit readout
Latitude
Unknown
Longitude
Unknown
Altitude
Unknown
Speed
Unknown
Apparent Right ascension
Unknown
Apparent Declination
Unknown
Sunlit
N/A
Visualization observer readout
Local Sidereal Time
18:57:40
Azimuth
Unknown
Elevation
Unknown
Doppler factor
Unknown
Orbital elements
Apogee altitude
1,306.932 km
Perigee altitude
1,264.062 km
Semi-major axis
7,663.634 km
Eccentricity
0.0028
Inclination
90.2524°
RAAN
8.953°
Arg. of periapsis
162.0344°
True anomaly
198.07725°
Mean anomaly
198.1769°
Eccentric anomaly
198.12704°
Mean motion
3.23512 °/min
Orbital period
111.28 mins
BSTAR
0.00081582
Loading maneuver chart data...
Computing Atmospheric mass density...
Loading historical data...
Loading historical data...
Loading historical data...
Loading historical data...
Loading historical data...
Loading historical data...
Loading historical data...

Documentation

Showing up to 5 results
|